Regional Weather Roundup
Issued by NWS

Home | Current Version | Previous Version | Text Only | Print | Product List | Glossary On
Versions: 1 2 3 4 5 6 7 8 9 10 11 12 13 14 15 16 17 18 19 20 21 22 23 24 25 26 27 28 29 30 31 32 33 34 35 36 37 38 39 40 41 42 43 44 45 46 47 48 49 50
000
ASUS43 KBIS 240310
RWRND

NORTH DAKOTA REGIONAL WEATHER ROUNDUP
NATIONAL WEATHER SERVICE BISMARCK ND
1000 PM CDT WED AUG 23 2017

NOTE: "FAIR" INDICATES FEW OR NO CLOUDS BELOW 12,000 FEET WITH NO
SIGNIFICANT WEATHER AND/OR OBSTRUCTIONS TO VISIBILITY.


NDZ001>003-009>011-017-240400-
NORTHWEST NORTH DAKOTA

CITY           SKY/WX    TMP DP  RH WIND       PRES   REMARKS
WILLISTON      CLEAR     76  52  43 E18       29.91R
MINOT          CLEAR     66  53  63 NE15G23   29.97R
MINOT AFB      CLEAR     66  53  63 E10       29.96R
$$

NDZ018>021-031>035-040>046-240400-
SOUTHWEST NORTH DAKOTA

CITY           SKY/WX    TMP DP  RH WIND       PRES   REMARKS
BISMARCK       CLEAR     63  58  83 SE6       29.95R
DICKINSON      CLEAR     66  53  63 SE10      29.94S
GARRISON         N/A     66  60  81 SE6       29.92R
HETTINGER ARPT CLEAR     70  54  56 E13       29.98R
$$

NDZ004>008-012>016-024-026-027-054-240400-
NORTHEAST NORTH DAKOTA

CITY           SKY/WX    TMP DP  RH WIND       PRES   REMARKS
GRAND FORKS    CLOUDY    56  56 100 E9        30.07R
GRND FRKS AFB  CLOUDY    56  53  90 NE5       30.08R
DEVILS LAKE    MOCLDY    59  49  69 E15G21    30.05
$$

NDZ022-023-025-028>030-036>039-047>053-240400-
SOUTHEAST NORTH DAKOTA

CITY           SKY/WX    TMP DP  RH WIND       PRES   REMARKS
FARGO          PTCLDY    62  51  67 E17G28    30.02R
JAMESTOWN      CLEAR     63  56  78 E10       29.99R
$$




USA.gov is the U.S. government's official web portal to all federal, state and local government web resources and services.